User: anonymous   Login
Location: Unspecified
(0.0000°N, 0.0000°E)
Time: 04:45:13
(UTC+00:00)
Language:

Ayame 2 - Orbit

View from above orbital plane
View from above orbital plane
View from above satellite
View from above satellite

Ground track
Ground track

The orbit data is extracted from the following two-line orbital elements,

1 11715U 80018A   18020.26073718 -.00000087  00000-0  00000+0 0  9992
2 11715   8.3953 296.9866 4426141 164.6179 358.0252  1.75493231181131
Epoch (UTC): 20 January 2018 06:15:27
Eccentricity: 0.4426141
inclination: 8.3953°
perigee height: 9804 km
apogee height: 35505 km
right ascension of ascending node: 296.9866°
argument of perigee: 164.6179°
revolutions per day: 1.75493231
mean anomaly at epoch: 358.0252°
orbit number at epoch: 18113

The dashed part of the orbit path shows where the satellite is in the earth's shadow,  

DLR